Retour au catalogue

RSW-01

ActifSciencePO
NORAD 49112·PAYLOAD·🇨🇳 China

Lancé Aug 24, 2021 depuis Jiuquan Satellite Launch Center

Loading…

Prochains Passages (prochaines 24 heures)

TLE

FraisSource: Space-Track

Époque: Sep 14, 2026, 14:43 UTC

1 49112U 21076A   26257.61379752 -.00000062  00000-0 -13556-3 0  9998
2 49112  86.4078 125.9011 0015130 168.2903 191.8597 13.42862809247882

Suivez RSW-01 en temps réel avec AllMySat

Download on the App Store